Flag for Taiwan Weather past 2 weeks in Taichung, Taiwan

Now
68 °F

Partly sunny.


Feels Like: 68 °F
Forecast: 62 / 73 °F
Wind: 17 mph from Northeast

Location: Chiang Kai Shek

Current Time: Jan 29, 2015 at 2:55:44 PM

Latest Report: Jan 29, 2015 at 2:30 PM


Visibility: N/A

Pressure: 30.04 "Hg

Humidity: 73%

Dew point: 59 °F

Location of TaichungLocation

Historic Weather in Taichung — Graph

°F

Taichung temperature yesterday

Maximum temperature yesterday: 61 °F (at 11:00 AM)
Minimum temperature yesterday: 57 °F (at 1:30 AM)
Average temperature yesterday: 59 °F

Past Weeks' High & Low Weather Summary

 TemperatureHumidityPressure
High72 °F (Jan 20, 11:00 AM)94% (Jan 21, 3:30 AM)30.36 "Hg (Jan 21, 3:30 AM)
Low46 °F (Jan 24, 6:30 AM)35% (Jan 23, 11:30 AM)30.01 "Hg (Jan 27, 2:30 PM)
Average61 °F70%30.16 "Hg
* Reported Jan 14 1:00 PM — Jan 29 1:30 PM, Taichung, Weather by CustomWeather, © 2014

Note: Actual official high and low records may vary slightly from our data, if they occured in-between our weather recording intervals... More about our weather records

Advertising

Taichung weather history for previous 24 hours

 ConditionsComfort  
Time TempWeatherWind HumidityBarometerVisibility
1:30 PM
Jan 29
68 °FPartly sunny.21 mph73%30.04 "HgN/A
1:00 PM68 °FPartly sunny.18 mph73%30.07 "HgN/A
12:30 PM70 °FPartly sunny.16 mph69%30.07 "HgN/A
12:00 PM70 °FPartly sunny.18 mph69%30.09 "HgN/A
11:30 AM68 °FPartly sunny.16 mph69%30.09 "HgN/A
11:00 AM68 °FBroken clouds.15 mph73%30.09 "HgN/A
10:30 AM66 °FPartly sunny.18 mph73%30.12 "HgN/A
10:00 AM66 °FPartly sunny.21 mph73%30.12 "HgN/A
9:30 AM66 °FPartly sunny.18 mph73%30.12 "HgN/A
9:00 AM66 °FBroken clouds.17 mph73%30.12 "HgN/A
8:30 AM63 °FBroken clouds.12 mph77%30.12 "HgN/A
8:00 AM63 °FBroken clouds.9 mph77%30.12 "HgN/A
7:30 AM59 °FBroken clouds.7 mph88%30.12 "HgN/A
7:00 AM59 °FPartly sunny.9 mph82%30.12 "HgN/A
6:30 AM59 °FPassing clouds.12 mph82%30.12 "HgN/A
6:00 AM59 °FPassing clouds.9 mph88%30.12 "HgN/A
5:30 AM59 °FPartly cloudy.12 mph82%30.09 "HgN/A
5:00 AM59 °FPartly cloudy.14 mph88%30.12 "HgN/A
4:48 AM59 °FPartly cloudy.15 mph88%30.12 "HgN/A
4:30 AM59 °FPartly cloudy.17 mph88%30.09 "HgN/A
4:00 AM59 °FPartly cloudy.20 mph88%30.12 "HgN/A
3:30 AM59 °FPartly cloudy.23 mph88%30.12 "HgN/A
3:00 AM59 °FPartly cloudy.22 mph82%30.12 "HgN/A
2:30 AM59 °FPartly cloudy.24 mph82%30.12 "HgN/A
2:00 AM59 °FPartly cloudy.22 mph88%30.12 "HgN/A
1:30 AM59 °FPartly cloudy.23 mph82%30.12 "HgN/A
1:00 AM59 °FPassing clouds.22 mph88%30.12 "HgN/A
12:30 AM59 °FPassing clouds.21 mph82%30.12 "HgN/A
12:00 AM59 °FPassing clouds.20 mph82%30.12 "HgN/A
11:30 PM
Jan 28
59 °FPassing clouds.16 mph82%30.12 "HgN/A
11:00 PM59 °FPassing clouds.17 mph82%30.12 "HgN/A
10:30 PM59 °FPartly cloudy.15 mph77%30.12 "HgN/A
10:00 PM59 °FPassing clouds.16 mph82%30.12 "HgN/A
9:30 PM59 °FPassing clouds.18 mph82%30.12 "HgN/A
9:00 PM59 °FPassing clouds.17 mph82%30.12 "HgN/A
8:30 PM59 °FPassing clouds.21 mph82%30.12 "HgN/A
8:00 PM59 °FPassing clouds.24 mph82%30.12 "HgN/A
7:30 PM59 °FPassing clouds.21 mph82%30.12 "HgN/A
7:00 PM59 °FPassing clouds.23 mph82%30.12 "HgN/A
6:30 PM59 °FPassing clouds.24 mph82%30.09 "HgN/A
6:00 PM59 °FPartly cloudy.26 mph82%30.12 "HgN/A
5:30 PM59 °FDrizzle. Broken clouds.25 mph82%30.09 "HgN/A
5:00 PM59 °FDrizzle. Broken clouds.26 mph82%30.09 "HgN/A
4:30 PM59 °FDrizzle. Broken clouds.26 mph82%30.09 "HgN/A
4:00 PM59 °FBroken clouds.28 mph82%30.09 "HgN/A
3:30 PM59 °FBroken clouds.29 mph82%30.09 "HgN/A
3:00 PM61 °FBroken clouds.26 mph77%30.07 "HgN/A
2:30 PM61 °FBroken clouds.28 mph77%30.07 "HgN/A
2:00 PM61 °FPartly sunny.26 mph72%30.09 "HgN/A
Weather by CustomWeather, © 2014

See weather overviewHow to use our weather pages